WetterOnline ( http://www.wetteronline.de )

Wetter aktuell Landstraße

Aktuelles Wetter: Wien / Hohe Warte (200m)

6-stündlich | Neueste Meldungen
Ortszeit Temperatur Wetter
Do, 21.03. 13:00 11.8° C leicht bewölkt
Do, 21.03. 7:00 0.4° C leicht bewölkt
Do, 21.03. 1:00 1.6° C wolkenlos
Mi, 20.03. 19:00 6.1° C wolkig
Mi, 20.03. 13:00 7.9° C bedeckt
Mi, 20.03. 7:00 4.2° C bewölkt
Mi, 20.03. 1:00 3.6° C fast wolkenlos
Di, 19.03. 19:00 7.5° C wolkig
Ortszeit Temperatur Wetter
Do, 21.03. 18:00 10.5° C leicht bewölkt
Do, 21.03. 17:00 12.1° C leicht bewölkt
Do, 21.03. 16:00 13.3° C leicht bewölkt
Do, 21.03. 15:00 13.0° C leicht bewölkt
Do, 21.03. 14:00 12.7° C leicht bewölkt
Do, 21.03. 13:00 11.8° C leicht bewölkt
Ortszeit Relative Feuchte Sichtweite
Do, 21.03. 13:00 38% 35 km
Do, 21.03. 7:00 80% 29 km
Do, 21.03. 1:00 72% 50 km
Mi, 20.03. 19:00 49% 50 km
Mi, 20.03. 13:00 47% 50 km
Mi, 20.03. 7:00 63% 30 km
Mi, 20.03. 1:00 62% 30 km
Di, 19.03. 19:00 46% 30 km
Ortszeit Relative Feuchte Sichtweite
Do, 21.03. 18:00 37% 35 km
Do, 21.03. 17:00 32% 40 km
Do, 21.03. 16:00 32% 40 km
Do, 21.03. 15:00 34% 40 km
Do, 21.03. 14:00 34% 40 km
Do, 21.03. 13:00 38% 35 km
Ortszeit Niederschlagsmenge Niederschlagsart
Do, 21.03. 13:00 0.0 l/m2 in 6 Std. -
Do, 21.03. 7:00 0.0 l/m2 in 24 Std. -
Do, 21.03. 1:00 0.0 l/m2 in 24 Std. -
Mi, 20.03. 19:00 0.0 l/m2 in 24 Std. -
Mi, 20.03. 13:00 0.0 l/m2 in 24 Std. -
Mi, 20.03. 7:00 0.0 l/m2 in 24 Std. -
Mi, 20.03. 1:00 0.0 l/m2 in 24 Std. -
Di, 19.03. 19:00 0.0 l/m2 in 24 Std. -
Ortszeit Niederschlagsmenge Niederschlagsart
Do, 21.03. 18:00 keine Meldung -
Do, 21.03. 17:00 keine Meldung -
Do, 21.03. 16:00 keine Meldung -
Do, 21.03. 15:00 keine Meldung -
Do, 21.03. 14:00 keine Meldung -
Do, 21.03. 13:00 keine Meldung -
Ortszeit Stärke Spitze Richtung
km/h Bft. km/h Grad Sektor
Do, 21.03. 13:00 7 2 - 80° O
Do, 21.03. 7:00 4 1 - 210° SW
Do, 21.03. 1:00 0 0 - - -
Mi, 20.03. 19:00 11 2 - 310° NW
Mi, 20.03. 13:00 11 2 - 330° NW
Mi, 20.03. 7:00 14 3 - 320° NW
Mi, 20.03. 1:00 14 3 - 320° NW
Di, 19.03. 19:00 7 2 - 340° N
Ortszeit Stärke Spitze Richtung
km/h Bft. km/h Grad Sektor
Do, 21.03. 18:00 4 1 - 130° SO
Do, 21.03. 17:00 7 2 - 110° O
Do, 21.03. 16:00 7 2 - 60° NO
Do, 21.03. 15:00 7 2 - 110° O
Do, 21.03. 14:00 11 2 - 80° O
Do, 21.03. 13:00 7 2 - 80° O
Ortszeit Untergrenze Bedeckung Gattung
total tief tief mittel hoch
Do, 21.03. 13:00 9000 m 6/8 0/8 - - Ci
Do, 21.03. 7:00 9000 m 2/8 0/8 - - Ci
Do, 21.03. 1:00 - 0/8 0/8 - - -
Mi, 20.03. 19:00 1800 m 6/8 6/8 Sc - -
Mi, 20.03. 13:00 1380 m 8/8 8/8 Cu - -
Mi, 20.03. 7:00 2100 m 7/8 7/8 Sc - -
Mi, 20.03. 1:00 2100 m 1/8 1/8 - Ac -
Di, 19.03. 19:00 1800 m 7/8 5/8 St Ac -
Ortszeit Bedeckungsgrad in Achtel und Wolkenuntergrenze
Do, 21.03. 18:00 5(9000m)
Do, 21.03. 17:00 4(9000m)
Do, 21.03. 16:00 6(9000m)
Do, 21.03. 15:00 6(9000m)
Do, 21.03. 14:00 6(9000m)
Do, 21.03. 13:00 6(9000m)
Ortszeit Luftdruck NN (hPa) Tendenz (hPa in 3 Std.)
Do, 21.03. 13:00 1035 - 1,3
Do, 21.03. 7:00 1037 + 0,8
Do, 21.03. 1:00 1037 + 0,4
Mi, 20.03. 19:00 1035 + 0,7
Mi, 20.03. 13:00 1035 + 0,2
Mi, 20.03. 7:00 1033 + 1,4
Mi, 20.03. 1:00 1032 + 1,2
Di, 19.03. 19:00 1028 + 2,2
Ortszeit Luftdruck NN (hPa) Tendenz (hPa in 3 Std.)
Do, 21.03. 18:00 1033 - 0,7
Do, 21.03. 17:00 1033 - 1,4
Do, 21.03. 16:00 1033 - 2,0
Do, 21.03. 15:00 1034 - 2,2
Do, 21.03. 14:00 1035 - 1,8
Do, 21.03. 13:00 1035 - 1,3
Ortszeit Schneehöhe (cm)
Do, 21.03. 13:00 -
Do, 21.03. 7:00 -
Do, 21.03. 1:00 -
Mi, 20.03. 19:00 -
Mi, 20.03. 13:00 -
Mi, 20.03. 7:00 -
Mi, 20.03. 1:00 -
Di, 19.03. 19:00 -
Ortszeit Schneehöhe (cm)
Do, 21.03. 18:00 -
Do, 21.03. 17:00 -
Do, 21.03. 16:00 -
Do, 21.03. 15:00 -
Do, 21.03. 14:00 -
Do, 21.03. 13:00 -
Link zu dieser Seite / Seite empfehlen

Das Wetter in ...